Atkins, VA

7:13 AM EST on February 11, 2016 (GMT -0500)
Mountain Empire

Weather History for KMKJ - May, 2013

Change the Weather History Date:

Tuesday, May 7, 2013

  Actual Average (KGEV) Record (KGEV)
Temperature  
Mean Temperature 56 °F -  
Max Temperature 61 °F 69 °F 82 °F (1986)
Min Temperature 51 °F 44 °F 27 °F (1968)
Degree Days  
Heating Degree Days 9    
Growing Degree Days 6 (Base 50)    
Moisture  
Dew Point 53 °F    
Average Humidity 91    
Maximum Humidity 100    
Minimum Humidity 59    
Precipitation  
Precipitation 0.05 in - - ()
Sea Level Pressure  
Sea Level Pressure 29.95 in    
Wind  
Wind Speed 0 mph (North)    
Max Wind Speed 0 mph    
Max Gust Speed -    
Visibility 9 miles    
Events Rain , Thunderstorm    
Averages and records for this station are not official NWS values.
T = Trace of Precipitation, MM = Missing Value Source: NWS Daily Summary

Daily Weather History Graph

Daily Weather History Graph

Search for Another Location

Airport or City:

Trip Planner

Search our weather history database for the weather conditions in past years. The results will help you decide how hot, cold, wet, or windy it might be!

Date:

Astronomy

May. 07, 2013 Rise Set
Actual Time 6:24 AM EDT 8:19 PM EDT
Civil Twilight 5:56 AM EDT 8:48 PM EDT
Nautical Twilight 5:21 AM EDT 9:22 PM EDT
Astronomical Twilight 4:45 AM EDT 9:59 PM EDT
Moon 4:54 AM EDT (5/7) 6:20 PM EDT (5/7)
Length of Visible Light 14h 51m
Length of Day
13h 55m
Waning Crescent, 5% of the Moon is Illuminated
May 7
Waning Crescent
May 9
New
May 18
First Quarter
May 25
Full
May 31
Last Quarter

Hourly Weather History & Observations

Time (EDT) Temp. Dew Point Humidity Pressure Visibility Wind Dir Wind Speed Gust Speed Precip Events Conditions
12:15 AM 54.9 °F 54.9 °F 100% 29.95 in 10.0 mi Calm Calm - N/A   Overcast
12:35 AM 54.7 °F 54.7 °F 100% 29.96 in 10.0 mi Calm Calm - N/A   Overcast
12:55 AM 54.7 °F 54.7 °F 100% 29.96 in 10.0 mi Calm Calm - N/A   Overcast
1:15 AM 54.5 °F 54.5 °F 100% 29.95 in 10.0 mi Calm Calm - N/A   Overcast
1:35 AM 54.5 °F 54.5 °F 100% 29.95 in 10.0 mi Calm Calm - N/A   Overcast
1:55 AM 54.5 °F 54.5 °F 100% 29.94 in 10.0 mi Calm Calm - N/A   Overcast
2:15 AM 54.5 °F 54.5 °F 100% 29.93 in 7.0 mi Calm Calm - N/A   Light Drizzle
2:35 AM 54.5 °F 54.5 °F 100% 29.93 in 5.0 mi Calm Calm - N/A   Overcast
2:55 AM 54.5 °F 54.5 °F 100% 29.93 in 5.0 mi Calm Calm - N/A   Overcast
3:15 AM 54.5 °F 54.5 °F 100% 29.93 in 4.0 mi Calm Calm - N/A   Drizzle
3:35 AM 54.5 °F 54.5 °F 100% 29.93 in 4.0 mi Calm Calm - N/A Rain Light Rain
3:55 AM 54.5 °F 54.5 °F 100% 29.93 in 5.0 mi Calm Calm - N/A Rain Light Rain
4:15 AM 54.5 °F 54.5 °F 100% 29.92 in 5.0 mi Calm Calm - N/A Rain Rain
4:35 AM 54.5 °F 54.5 °F 100% 29.92 in 10.0 mi Calm Calm - N/A   Overcast
4:55 AM 53.8 °F 53.8 °F 100% 29.91 in 10.0 mi Calm Calm - N/A   Overcast
5:15 AM 53.1 °F 53.1 °F 100% 29.92 in 10.0 mi Calm Calm - N/A   Overcast
5:35 AM 52.7 °F 52.7 °F 100% 29.93 in 10.0 mi Calm Calm - N/A   Overcast
5:55 AM 52.9 °F 52.9 °F 100% 29.93 in 10.0 mi Calm Calm - N/A   Overcast
6:15 AM 52.9 °F 52.9 °F 100% 29.94 in 10.0 mi Calm Calm - N/A   Overcast
6:35 AM 52.9 °F 52.9 °F 100% 29.94 in 10.0 mi Calm Calm - N/A   Overcast
6:55 AM 52.9 °F 52.9 °F 100% 29.94 in 10.0 mi Calm Calm - N/A   Overcast
7:15 AM 53.1 °F 53.1 °F 100% 29.94 in 10.0 mi Calm Calm - N/A   Overcast
7:35 AM 53.2 °F 53.2 °F 100% 29.94 in 10.0 mi Calm Calm - N/A   Overcast
7:55 AM 53.2 °F 53.2 °F 100% 29.94 in 10.0 mi Calm Calm - N/A   Overcast
8:15 AM 54.0 °F 53.8 °F 99% 29.95 in 10.0 mi Calm Calm - N/A   Overcast
8:35 AM 54.5 °F 54.0 °F 98% 29.95 in 10.0 mi Calm Calm - N/A   Overcast
8:55 AM 55.8 °F 53.8 °F 93% 29.96 in 10.0 mi Calm Calm - N/A   Overcast
9:15 AM 56.7 °F 54.0 °F 91% 29.96 in 10.0 mi Calm Calm - N/A   Mostly Cloudy
9:35 AM 56.3 °F 53.8 °F 91% 29.97 in 10.0 mi Calm Calm - N/A   Overcast
9:55 AM 56.5 °F 54.5 °F 93% 29.97 in 10.0 mi Calm Calm - N/A   Overcast
10:15 AM 56.5 °F 54.3 °F 92% 29.97 in 10.0 mi Calm Calm - N/A   Overcast
10:35 AM 56.8 °F 54.1 °F 91% 29.97 in 10.0 mi Calm Calm - N/A   Overcast
10:55 AM 55.8 °F 54.1 °F 94% 29.97 in 10.0 mi Calm Calm - N/A   Overcast
11:15 AM 56.7 °F 53.8 °F 90% 29.97 in 10.0 mi Calm Calm - N/A   Overcast
11:35 AM 57.0 °F 54.7 °F 92% 29.97 in 10.0 mi Calm Calm - N/A   Overcast
11:55 AM 58.6 °F 54.5 °F 86% 29.96 in 10.0 mi Calm Calm - N/A Thunderstorm Overcast
12:15 PM 60.3 °F 54.1 °F 80% 29.96 in 10.0 mi Calm Calm - N/A Thunderstorm Mostly Cloudy
12:35 PM 61.0 °F 53.1 °F 75% 29.94 in 10.0 mi Calm Calm - N/A Thunderstorm Mostly Cloudy
12:55 PM 60.4 °F 51.3 °F 72% 29.94 in 10.0 mi Calm Calm - N/A   Mostly Cloudy
1:15 PM 57.4 °F 51.3 °F 80% 29.95 in 10.0 mi Calm Calm - N/A Rain Light Rain
1:35 PM 55.8 °F 53.8 °F 93% 29.96 in 7.0 mi Calm Calm - 0.05 in Rain , Thunderstorm Light Thunderstorms and Rain
1:55 PM 55.9 °F 55.4 °F 98% 29.95 in 7.0 mi Calm Calm - 0.05 in Rain , Thunderstorm Light Thunderstorms and Rain
2:15 PM 57.0 °F 54.7 °F 92% 29.95 in 10.0 mi Calm Calm - N/A Rain , Thunderstorm Light Thunderstorms and Rain
2:35 PM 57.6 °F 53.6 °F 87% 29.94 in 10.0 mi Calm Calm - N/A Thunderstorm Thunderstorm
2:55 PM 58.3 °F 55.4 °F 90% 29.94 in 10.0 mi Calm Calm - N/A Thunderstorm Thunderstorm
3:15 PM 59.4 °F 51.3 °F 75% 29.94 in 10.0 mi Calm Calm - N/A Thunderstorm Thunderstorm
3:35 PM 59.4 °F 48.7 °F 68% 29.94 in 10.0 mi Calm Calm - N/A   Overcast
3:55 PM 58.6 °F 45.9 °F 63% 29.93 in 10.0 mi Calm Calm - N/A Thunderstorm Overcast
4:15 PM 58.6 °F 46.2 °F 63% 29.93 in 10.0 mi Calm Calm - N/A Thunderstorm Thunderstorm
4:35 PM 59.0 °F 46.4 °F 63% 29.93 in 10.0 mi Calm Calm - N/A Thunderstorm Overcast
4:55 PM 59.4 °F 45.7 °F 61% 29.93 in 10.0 mi Calm Calm - N/A   Overcast
5:15 PM 60.3 °F 45.9 °F 59% 29.93 in 10.0 mi Calm Calm - N/A   Mostly Cloudy
5:35 PM 59.0 °F 50.5 °F 73% 29.94 in 10.0 mi Calm Calm - N/A   Overcast
5:55 PM 57.4 °F 51.3 °F 80% 29.93 in 10.0 mi Calm Calm - N/A   Overcast
6:15 PM 58.3 °F 50.5 °F 75% 29.94 in 10.0 mi Calm Calm - N/A Thunderstorm Overcast
6:35 PM 57.2 °F 50.7 °F 79% 29.93 in 10.0 mi Calm Calm - N/A   Overcast
6:55 PM 56.7 °F 51.4 °F 83% 29.95 in 10.0 mi Calm Calm - N/A   Overcast
7:15 PM 56.7 °F 51.3 °F 82% 29.95 in 10.0 mi Calm Calm - N/A   Overcast
7:35 PM 56.3 °F 52.0 °F 85% 29.96 in 10.0 mi Calm Calm - N/A Rain Light Rain
7:55 PM 55.4 °F 54.3 °F 96% 29.96 in 10.0 mi Calm Calm - N/A   Drizzle
8:15 PM 54.1 °F 52.7 °F 95% 29.96 in 10.0 mi Calm Calm - N/A   Overcast
8:35 PM 53.6 °F 53.1 °F 98% 29.96 in 10.0 mi Calm Calm - N/A   Overcast
8:55 PM 52.7 °F 52.7 °F 100% 29.97 in 10.0 mi Calm Calm - N/A   Mostly Cloudy
9:15 PM 52.7 °F 52.7 °F 100% 29.96 in 10.0 mi Calm Calm - N/A   Mostly Cloudy
9:35 PM 52.2 °F 52.2 °F 100% 29.96 in 7.0 mi Calm Calm - N/A   Mostly Cloudy
9:55 PM 52.3 °F 52.3 °F 100% 29.97 in 10.0 mi Calm Calm - N/A   Overcast
10:15 PM 52.7 °F 52.7 °F 100% 29.98 in 7.0 mi Calm Calm - N/A   Overcast
10:35 PM 52.2 °F 52.2 °F 100% 29.98 in 7.0 mi Calm Calm - N/A   Overcast
10:55 PM 51.6 °F 51.6 °F 100% 29.98 in 3.0 mi Calm Calm - N/A   Overcast
11:15 PM 51.8 °F 51.8 °F 100% 29.98 in 4.0 mi Calm Calm - N/A   Overcast
11:35 PM 51.8 °F 51.8 °F 100% 30.00 in 5.0 mi Calm Calm - N/A   Overcast
11:55 PM 51.1 °F 51.1 °F 100% 29.99 in 7.0 mi Calm Calm - N/A   Overcast